Location: Newark
(43.9494°N, 6.8108°E)
Time: 11:28:36
(UTC+00:00)

Transit 4A - All Passes

Search period start: 14 October 2019 00:00
Search period end: 24 October 2019 00:00
Orbit: 866 x 978 km, 66.8° (Epoch: 13 October)

Date Brightness Start Highest point End Pass type
(mag) Time Alt. Az. Time Alt. Az. Time Alt. Az.
14 Oct - 04:52:56 10° S 04:58:49 41° ESE 05:04:38 10° NE visible
14 Oct - 06:39:12 10° WSW 06:45:12 42° NW 06:51:05 10° NNE daylight
14 Oct - 08:30:43 10° NW 08:33:20 13° NNW 08:35:57 10° N daylight
14 Oct - 12:08:59 10° N 12:12:25 15° NNE 12:15:47 10° ENE daylight
14 Oct - 13:54:15 10° NNW 14:00:11 57° NE 14:05:57 10° SE daylight
14 Oct - 15:41:21 10° NW 15:46:07 25° WSW 15:50:46 10° SSW daylight
15 Oct - 05:01:48 10° SSW 05:08:02 59° ESE 05:14:11 10° NE visible
15 Oct - 06:49:13 10° WSW 06:54:47 31° NW 07:00:15 10° NNE daylight
15 Oct - 08:42:28 10° NNW 08:43:19 10° NNW 08:44:10 10° NNW daylight
15 Oct - 12:17:58 10° N 12:22:14 19° NE 12:26:25 10° E daylight
15 Oct - 14:03:33 10° NNW 14:09:36 81° ENE 14:15:27 10° SE daylight
15 Oct - 15:51:33 10° WNW 15:55:09 17° WSW 15:58:41 10° SW daylight
16 Oct - 03:28:39 10° SE 03:31:52 14° ESE 03:35:03 10° ENE visible
16 Oct - 05:10:57 10° SSW 05:17:20 84° ESE 05:23:37 10° NNE visible
16 Oct - 06:59:27 10° W 07:04:26 24° NW 07:09:21 10° NNE daylight
16 Oct - 12:27:02 10° NNW 12:31:58 25° NE 12:36:46 10° E daylight
16 Oct - 14:12:55 10° NW 14:18:55 71° WSW 14:24:43 10° SSE daylight
16 Oct - 16:03:32 10° W 16:04:06 10° W 16:04:40 10° WSW daylight
17 Oct - 03:36:12 10° SSE 03:40:53 22° ESE 03:45:32 10° ENE visible
17 Oct - 05:20:21 10° SW 05:26:41 71° WNW 05:32:57 10° NNE visible
17 Oct - 07:09:56 10° WNW 07:14:11 18° NW 07:18:24 10° N daylight
17 Oct - 10:51:57 10° N 10:53:10 11° NNE 10:54:23 10° NNE daylight
17 Oct - 12:36:10 10° NNW 12:41:36 33° NE 12:46:52 10° ESE daylight
17 Oct - 14:22:26 10° NW 14:28:09 48° WSW 14:33:43 10° S daylight
18 Oct - 03:44:28 10° S 03:50:00 32° ESE 03:55:27 10° NE visible
18 Oct - 05:29:58 10° SW 05:36:08 51° NW 05:42:12 10° NNE daylight
18 Oct - 07:20:42 10° WNW 07:24:02 15° NNW 07:27:20 10° N daylight
18 Oct - 11:00:22 10° N 11:03:07 13° NNE 11:05:49 10° NE daylight
18 Oct - 12:45:22 10° NNW 12:51:09 46° NE 12:56:45 10° ESE daylight
18 Oct - 14:32:05 10° NW 14:37:18 32° WSW 14:42:25 10° S daylight
19 Oct - 03:53:08 10° S 03:59:09 47° ESE 04:05:07 10° NE visible
19 Oct - 05:39:50 10° WSW 05:45:40 37° NW 05:51:25 10° NNE daylight
19 Oct - 07:31:51 10° NW 07:33:58 12° NNW 07:36:03 10° N daylight
19 Oct - 11:09:15 10° N 11:12:59 16° NNE 11:16:39 10° ENE daylight
19 Oct - 12:54:37 10° NNW 13:00:36 64° NE 13:06:24 10° SE daylight
19 Oct - 14:41:59 10° WNW 14:46:23 22° WSW 14:50:42 10° SSW daylight
20 Oct - 02:22:02 10° ESE 02:23:10 10° E 02:24:16 10° E visible
20 Oct - 04:02:06 10° SSW 04:08:25 67° ESE 04:14:37 10° NE visible
20 Oct - 05:49:55 10° W 05:55:16 28° NW 06:00:33 10° NNE daylight
20 Oct - 11:18:16 10° N 11:22:46 21° NE 11:27:10 10° E daylight
20 Oct - 13:03:57 10° NNW 13:09:59 89° WSW 13:15:49 10° SSE daylight
20 Oct - 14:52:28 10° WNW 14:55:23 14° WSW 14:58:17 10° SW daylight
21 Oct - 02:28:17 10° SE 02:32:08 17° ESE 02:35:57 10° ENE visible
21 Oct - 04:11:21 10° SSW 04:17:43 87° WNW 04:23:59 10° NNE visible
21 Oct - 06:00:15 10° W 06:04:59 22° NW 06:09:38 10° N daylight
21 Oct - 11:27:21 10° NNW 11:32:28 28° NE 11:37:26 10° E daylight
21 Oct - 13:13:22 10° NW 13:19:15 62° WSW 13:24:59 10° SSE daylight
22 Oct - 02:36:09 10° SSE 02:41:11 25° ESE 02:46:09 10° NE visible
22 Oct - 04:20:50 10° SW 04:27:07 63° NW 04:33:18 10° NNE visible
22 Oct - 06:10:50 10° WNW 06:14:45 17° NNW 06:18:38 10° N daylight
22 Oct - 09:51:56 10° N 09:53:47 11° NNE 09:55:37 10° NE daylight
22 Oct - 11:36:31 10° NNW 11:42:04 37° NE 11:47:28 10° ESE daylight
22 Oct - 13:22:55 10° NW 13:28:28 42° WSW 13:33:53 10° S daylight
23 Oct - 02:44:35 10° S 02:50:19 37° ESE 02:55:58 10° NE visible
23 Oct - 04:30:33 10° WSW 04:36:35 45° NW 04:42:32 10° NNE visible
23 Oct - 06:21:43 10° NW 06:24:38 13° NNW 06:27:30 10° N daylight
23 Oct - 10:00:35 10° N 10:03:42 14° NNE 10:06:45 10° ENE daylight
23 Oct - 11:45:43 10° NNW 11:51:34 51° NE 11:57:15 10° SE daylight
23 Oct - 13:32:39 10° NW 13:37:36 28° WSW 13:42:27 10° SSW daylight
